Location: City of Moscow
(46.7306°N, 116.9989°W)
Time: 08:22:57
(UTC+00:00)

USA 234 - Pass Details

Date: 15 March 2026
Orbit: 1102 x 1106 km, 123.0° (Epoch: 4 January)

Event Time Altitude Azimuth Distance (km) Brightness Sun altitude
Exits shadow 03:46:12 24° 71° (ENE) 2,121 4.3 -20.0°
Maximum altitude 03:49:43 43° 15° (NNE) 1,516 4.0 -20.5°
Drops below altitude 10° 03:55:48 10° 307° (NW) 2,971 6.6 -21.5°
Sets 03:58:24 0° 301° (WNW) 3,930 7.6 -21.9°
